Location: Seale
(32.2974°N, 85.1688°W)
Time: 10:24:33
(UTC+00:00)

Hubble Space Telescope - Pass Details

Date: 27 January 2021
Orbit: 536 x 539 km, 28.5° (Epoch: 26 February)

Event Time Altitude Azimuth Distance (km) Brightness Sun altitude
Rises 00:58:31 0° 264° (W) 2,674 5.8 -23.2°
Reaches altitude 10° 01:01:23 10° 244° (WSW) 1,782 4.4 -23.8°
Maximum altitude 01:04:06 17° 202° (SSW) 1,385 3.1 -24.4°
Enters shadow 01:05:23 15° 180° (S) 1,479 3.0 -24.6°
